Regional Weather Roundup
Issued by NWS Wilmington, NC

Home | Current Version | Previous Version | Text Only | Print | Product List | Glossary On
Versions: 1 2 3 4 5 6 7 8 9 10 11 12 13 14 15 16 17 18 19 20 21 22 23 24 25 26 27 28 29 30 31 32 33 34 35 36 37 38 39 40 41 42 43 44 45 46 47 48 49 50
000
ASUS42 KILM 120013
RWRILM
RWRILM
REGIONAL HOURLY WEATHER ROUNDUP
NATIONAL WEATHER SERVICE WILMINGTON NC
700 PM EST THU FEB 11 2016

NOTE: "FAIR" INDICATES FEW OR NO CLOUDS BELOW 12,000 FEET WITH NO
SIGNIFICANT WEATHER AND/OR OBSTRUCTIONS TO VISIBILITY.

...............WFO WILMINGTON COUNTY WARNING AREA...............

......COASTAL NC AND SC COUNTIES......

CITY           SKY/WX    TMP DP  RH WIND       PRES   REMARKS
WILMINGTON     CLEAR     37  22  54 CALM      30.24R
N MYRTLE BEACH CLEAR     41  31  67 SW3       30.23R
MYRTLE BEACH   CLEAR     43  25  49 E6        30.25

......INLAND NC AND SC COUNTIES.......

CITY           SKY/WX    TMP DP  RH WIND       PRES   REMARKS
LUMBERTON      CLEAR     37  27  67 CALM      30.22R
ELIZABETHTOWN  CLEAR     36  23  57 CALM      30.23R
WHITEVILLE     CLEAR     38  24  57 CALM      30.23R
FLORENCE       CLEAR     40  26  57 E3        30.21R
DARLINGTON     CLEAR     39  23  52 CALM      30.22R
KINGSTREE      FAIR      39  28  65 CALM      30.22R
HARTSVILLE     FAIR      37  28  70 CALM      30.20R
BENNETTSVILLE  FAIR      37  30  75 CALM      30.22R
CONWAY         NOT AVBL
GEORGETOWN     FAIR      39  30  70 S5        30.23R
MARION         FAIR      37  28  70 CALM      30.23R

....................REST OF NORTH CAROLINA......................

.........EASTERN NC.........

CITY           SKY/WX    TMP DP  RH WIND       PRES   REMARKS
CAPE HATTERAS  CLEAR     37  13  37 NW8       30.24R WCI  31
JACKSONVILLE   CLEAR     32  19  59 CALM      30.24R
MOREHEAD CITY  CLEAR     36  16  44 NW7       30.25R WCI  30
KENANSVILLE    CLEAR     30  23  73 CALM      30.24R
NEW BERN       CLEAR     32  16  51 CALM      30.25R
ELIZABETH CITY CLEAR     30  11  45 W5        30.24R WCI  25

.........CENTRAL NC.........

CITY           SKY/WX    TMP DP  RH WIND       PRES   REMARKS
RALEIGH DURHAM CLEAR     34  10  37 CALM      30.22R
ROCKY MOUNT    CLEAR     30  14  51 CALM      30.24R
ROANOKE RAPIDS NOT AVBL
FAYETTEVILLE   CLEAR     40  16  37 CALM      30.22R
HOFFMAN        CLEAR     33  20  58 NW5       30.20S WCI  29

.........WESTERN NC.........

CITY           SKY/WX    TMP DP  RH WIND       PRES   REMARKS
CHARLOTTE      PTCLDY    40  16  37 CALM      30.19R
GREENSBORO     CLEAR     34  11  38 NW6       30.18R WCI  29
HICKORY        NOT AVBL
BOONE          NOT AVBL
ASHEVILLE      NOT AVBL

.....................REST OF SOUTH CAROLINA.....................

.........EASTERN SC.........

CITY           SKY/WX    TMP DP  RH WIND       PRES   REMARKS
CHARLESTON     CLEAR     44  30  57 S6        30.21R
BEAUFORT MCAS  CLEAR     45  34  65 CALM      30.21R
HILTON HEAD    NOT AVBL

.........CENTRAL SC.........

CITY           SKY/WX    TMP DP  RH WIND       PRES   REMARKS
COLUMBIA       PTCLDY    46  26  45 CALM      30.19R
ORANGEBURG     CLEAR     45  27  49 N3        30.20R
SUMTER SHAW    CLEAR     41  26  54 N2        30.18R

.........WESTERN SC.........

CITY           SKY/WX    TMP DP  RH WIND       PRES   REMARKS
GREENVILLE     NOT AVBL
ROCK HILL      CLEAR     37  21  52 CALM      30.19R
ANDERSON       CLEAR     44  24  45 S3        30.16R
CLEMSON        NOT AVBL
GREENWOOD      CLEAR     44  25  47 CALM      30.19R


...................COASTAL AND OFFSHORE REPORTS..................

................LOCAL PIERS AND NC RESERVE................


STATION/POSITION TIME  SKY/WX   TEMP    WIND        PRES    VSBY
                                AIR SEA DIR/SP/G
                 (UTC)          (F)     (DEG/KT/KT) (MB)    (MI)
JOHNY MRCER PIER 2300            44 52  330/  4/  6 1022.1R
NC RESRV MASNBRO NOT AVBL
OCEAN CREST PIER NOT AVBL
SPRINGMAID  PIER 2300            44 49  170/  9/ 10 1022.6R


................COASTAL AND OFFSHORE BUOYS................


STATION/POSITION TIME  SKY/WX   TEMP    WIND        PRES    VSBY
                                AIR SEA DIR/SP/G
                 (UTC)          (F)     (DEG/KT/KT) (MB)    (MI)
DIMNDSHOAL 41025 2350            40 70  300/ 14/ 17 1023.7R
WVE H/P(F/S)=  4/ 4 SWL H/P/D(F/S/D)=  2/140/ 8

CAPE LOOKOUT     NOT AVBL
ONSLOW BAY 41036 NOT AVBL
ONSLOW BAY 41064 2308            44 58              1022.8R
ONSLOW BAY 41159 2325               58                N/A
WVE H/P(F/S)=  4/ 8

5SE WRITBC 41038 2308            45 50  320/ 10/ 14 1023.5R
MASNBO INL 41110 2306               50                N/A
WVE H/P(F/S)=  2/ 8

WILM HARBR 41108 2326               51                N/A
WVE H/P(F/S)=  3/ 7

27SE WRITB 41037 2308            44 61  300/  4/ 10 1021.4R
FRYING PAN 41013 0000            46 56  300/  6/ 10 1024.0R
SUNST NRSH 41024 NOT AVBL
CAPRS NRSH 41029 2308            48     200/ 10/ 12 1022.2R
EDISTO     41004 2350            51 64  230/  6/ 10 1023.1R
WVE H/P(F/S)=  2/ 6 SWL H/P/D(F/S/D)=  2/ 6



..........OFFSHORE BUOYS BEYOND 100 NM OFFSHORE...........
.....IN A TRIANGLE---HAT TO BERMUDA TO BAHAMAS TO HAT.....


STATION/POSITION TIME  SKY/WX   TEMP    WIND        PRES    VSBY
                                AIR SEA DIR/SP/G
                 (UTC)          (F)     (DEG/KT/KT) (MB)    (MI)
150E HAT   41001 2300            48 69  290/ 21/ 31 1021.0R
W BERMUDA  41048 2350            61 69  270/ 25/ 29 1020.3R
WVE H/P(F/S)= 13/11 SWL H/P/D(F/S/D)=  7/270/11

ATLANTIC S 41049 2350            72 74  310/ 10/ 14 1021.8R
WVE H/P(F/S)= 12/12 SWL H/P/D(F/S/D)= 11/300/12

E BAHAMAS  41046 2350            75 79   10/ 16/ 19 1022.1R
WVE H/P(F/S)= 10/12 SWL H/P/D(F/S/D)=  8/320/12

NE BAHAMAS 41047 2350            67 75  330/ 12/ 17 1023.9R
WVE H/P(F/S)=  9/10 SWL H/P/D(F/S/D)=  8/320/10

120E CANVRL41010 2320            61 72              1025.2R

END



USA.gov is the U.S. government's official web portal to all federal, state and local government web resources and services.